Regional Weather Roundup
Issued by NWS

Home | Current Version | Previous Version | Graphics & Text | Print | Product List | Glossary On
Versions: 1 2 3 4 5 6 7 8 9 10 11 12 13 14 15 16 17 18 19 20 21 22 23 24 25 26 27 28 29 30 31 32 33 34 35 36 37 38 39 40 41 42 43 44 45 46 47 48 49 50
000
ASUS43 KLMK 200902
RWRKY
KENTUCKY REGIONAL WEATHER ROUNDUP
NATIONAL WEATHER SERVICE LOUISVILLE KY
500 AM EDT SAT SEP 20 2014

NOTE "FAIR" INDICATES FEW OR NO CLOUDS BELOW 12,000 FEET
WITH NO SIGNIFICANT WEATHER AND/OR OBSTRUCTIONS TO VISIBILITY.

KYZ001>023-026-027-061>063-070>075-201000-
WESTERN AND SOUTH CENTRAL KENTUCKY

CITY           SKY/WX    TMP DP  RH WIND       PRES   REMARKS
PADUCAH        CLEAR     63  57  81 CALM      30.01S
HENDERSON      CLEAR     55  54  94 S3        30.02S
OWENSBORO      CLEAR     62  59  90 CALM      30.03S
HOPKINSVILLE   CLEAR     64  64 100 S5        30.04S
BOWLING GREEN  CLEAR     69  63  81 S9        30.06S
GLASGOW        CLEAR     68  62  80 S6        30.08S
$$

KYZ024-025-028>034-038-045-046-053-201000-
NORTH CENTRAL KENTUCKY

CITY           SKY/WX    TMP DP  RH WIND       PRES   REMARKS
LOUISVILLE/SDF PTCLDY    64  58  80 SE6       30.04S
LOUISVILLE/LOU CLEAR     60  56  86 CALM      30.05S
FORT KNOX      MOCLDY    60  57  92 S5        30.04S
$$

KYZ035>037-039>044-047>052-055>060-089>105-201000-
NORTHEAST KENTUCKY

CITY           SKY/WX    TMP DP  RH WIND       PRES   REMARKS
LEXINGTON      PTCLDY    66  60  81 S9        30.09S
COVINGTON      PTCLDY    61  57  87 S6        30.06R
FRANKFORT      PTCLDY    62  59  90 S3        30.06F
$$

KYZ054-064>069-076>088-106>120-201000-
SOUTHEAST KENTUCKY

CITY           SKY/WX    TMP DP  RH WIND       PRES   REMARKS
JACKSON        PTCLDY    63  56  78 VRB5      30.14S
LONDON         PTCLDY    62  56  80 SE3       30.14S
SOMERSET       PTCLDY    63  61  94 CALM      30.13S
MIDDLESBORO    CLEAR     59  57  91 CALM      30.17S
MONTICELLO     SUNNY     70  60  70 S7        30.13S
$$



USA.gov is the U.S. government's official web portal to all federal, state and local government web resources and services.